TimeEDT,TemperatureF,Dew PointF,Humidity,Sea Level PressureIn,VisibilityMPH,Wind Direction,Wind SpeedMPH,Gust SpeedMPH,PrecipitationIn,Events,Conditions,WindDirDegrees,DateUTC
12:15 AM,48.2,44.6,87,30.07,10.0,NNE,6.9,-,N/A,,Clear,30,2012-10-28 04:15:00
12:55 AM,50.0,46.4,87,30.06,10.0,NE,8.1,-,N/A,,Clear,40,2012-10-28 04:55:00
1:15 AM,51.8,46.4,82,30.06,10.0,NE,9.2,-,N/A,,Clear,40,2012-10-28 05:15:00
1:35 AM,51.8,46.4,82,30.06,10.0,NE,9.2,-,N/A,,Clear,40,2012-10-28 05:35:00
1:55 AM,51.8,46.4,82,30.06,10.0,NE,9.2,-,N/A,,Clear,40,2012-10-28 05:55:00
2:15 AM,51.8,48.2,88,30.05,10.0,NE,11.5,18.4,N/A,,Clear,50,2012-10-28 06:15:00
2:35 AM,51.8,48.2,88,30.04,10.0,NE,13.8,-,N/A,,Clear,50,2012-10-28 06:35:00
2:55 AM,51.8,48.2,88,30.04,10.0,NE,12.7,-,N/A,,Clear,50,2012-10-28 06:55:00
3:15 AM,51.8,48.2,88,30.05,10.0,NE,9.2,-,N/A,,Clear,40,2012-10-28 07:15:00
3:35 AM,51.8,48.2,88,30.05,10.0,NE,8.1,-,N/A,,Clear,50,2012-10-28 07:35:00
3:55 AM,51.8,48.2,88,30.05,10.0,NE,10.4,-,N/A,,Scattered Clouds,50,2012-10-28 07:55:00
4:15 AM,51.8,48.2,88,30.05,10.0,NE,10.4,-,N/A,,Mostly Cloudy,50,2012-10-28 08:15:00
4:35 AM,51.8,48.2,88,30.04,10.0,NE,12.7,-,N/A,,Overcast,50,2012-10-28 08:35:00
4:55 AM,51.8,48.2,88,30.05,10.0,NE,10.4,-,N/A,,Overcast,50,2012-10-28 08:55:00
5:15 AM,51.8,48.2,88,30.05,10.0,NE,11.5,-,N/A,,Overcast,50,2012-10-28 09:15:00
5:35 AM,51.8,48.2,88,30.05,10.0,NE,10.4,-,N/A,,Overcast,40,2012-10-28 09:35:00
5:55 AM,51.8,46.4,82,30.05,10.0,NE,10.4,-,N/A,,Overcast,50,2012-10-28 09:55:00
6:15 AM,51.8,48.2,88,30.06,10.0,NE,9.2,-,N/A,,Overcast,40,2012-10-28 10:15:00
6:35 AM,51.8,48.2,88,30.06,10.0,NE,5.8,-,N/A,,Overcast,40,2012-10-28 10:35:00
6:55 AM,50.0,48.2,94,30.06,10.0,NNE,8.1,-,N/A,,Overcast,30,2012-10-28 10:55:00
7:15 AM,50.0,48.2,94,30.06,8.0,NNE,9.2,-,N/A,,Overcast,30,2012-10-28 11:15:00
7:35 AM,50.0,48.2,94,30.07,4.0,NNE,9.2,-,N/A,,Overcast,30,2012-10-28 11:35:00
7:55 AM,48.2,48.2,100,30.07,4.0,NE,9.2,-,N/A,,Overcast,40,2012-10-28 11:55:00
8:15 AM,48.2,48.2,100,30.08,3.0,NE,8.1,-,N/A,,Overcast,40,2012-10-28 12:15:00
8:35 AM,48.2,48.2,100,30.07,3.0,NNE,11.5,17.3,N/A,,Overcast,30,2012-10-28 12:35:00
8:55 AM,48.2,48.2,100,30.07,3.0,NNE,10.4,-,N/A,,Overcast,30,2012-10-28 12:55:00
9:15 AM,48.2,48.2,100,30.07,4.0,NE,12.7,19.6,N/A,,Overcast,40,2012-10-28 13:15:00
9:35 AM,48.2,48.2,100,30.07,5.0,NE,10.4,17.3,N/A,,Overcast,40,2012-10-28 13:35:00
9:55 AM,48.2,48.2,100,30.08,4.0,NNE,9.2,16.1,N/A,,Overcast,30,2012-10-28 13:55:00
10:15 AM,48.2,48.2,100,30.07,5.0,NNE,10.4,-,N/A,,Overcast,30,2012-10-28 14:15:00
10:35 AM,48.2,48.2,100,30.07,4.0,NNE,12.7,17.3,N/A,,Overcast,30,2012-10-28 14:35:00
10:55 AM,48.2,48.2,100,30.07,3.0,NNE,10.4,17.3,N/A,,Overcast,30,2012-10-28 14:55:00
11:15 AM,48.2,48.2,100,30.07,5.0,NNE,9.2,17.3,N/A,,Overcast,30,2012-10-28 15:15:00
11:35 AM,48.2,48.2,100,30.06,5.0,NNE,10.4,19.6,N/A,,Overcast,30,2012-10-28 15:35:00
11:55 AM,48.2,46.4,93,30.05,9.0,NE,11.5,21.9,N/A,,Overcast,40,2012-10-28 15:55:00
12:15 PM,48.2,46.4,93,30.05,10.0,NE,11.5,17.3,N/A,,Overcast,40,2012-10-28 16:15:00
12:35 PM,48.2,46.4,93,30.04,10.0,NNE,9.2,-,N/A,,Overcast,30,2012-10-28 16:35:00
12:55 PM,48.2,46.4,93,30.04,10.0,NNE,11.5,17.3,N/A,,Overcast,20,2012-10-28 16:55:00
1:15 PM,48.2,46.4,93,30.03,10.0,NNE,12.7,18.4,N/A,,Overcast,20,2012-10-28 17:15:00
1:35 PM,48.2,46.4,93,30.03,10.0,NNE,10.4,16.1,N/A,,Overcast,30,2012-10-28 17:35:00
1:55 PM,48.2,46.4,93,30.03,10.0,NNE,12.7,18.4,N/A,,Overcast,20,2012-10-28 17:55:00
2:15 PM,50.0,46.4,87,30.02,10.0,NNE,8.1,16.1,N/A,,Overcast,20,2012-10-28 18:15:00
2:35 PM,50.0,46.4,87,30.01,10.0,North,10.4,-,N/A,,Overcast,10,2012-10-28 18:35:00
2:55 PM,51.8,46.4,82,30.01,10.0,North,9.2,-,N/A,,Overcast,10,2012-10-28 18:55:00
3:15 PM,51.8,46.4,82,29.99,10.0,NNE,9.2,-,N/A,,Partly Cloudy,20,2012-10-28 19:15:00
3:35 PM,53.6,46.4,77,29.99,10.0,NNE,9.2,-,N/A,,Clear,30,2012-10-28 19:35:00
3:55 PM,53.6,46.4,77,29.98,10.0,NNE,10.4,16.1,N/A,,Clear,20,2012-10-28 19:55:00
4:15 PM,53.6,48.2,82,29.98,10.0,NNE,6.9,-,N/A,,Clear,20,2012-10-28 20:15:00
4:35 PM,53.6,46.4,77,29.98,10.0,North,6.9,-,N/A,,Clear,10,2012-10-28 20:35:00
4:55 PM,51.8,46.4,82,29.97,10.0,NNE,8.1,-,N/A,,Clear,20,2012-10-28 20:55:00
5:15 PM,51.8,46.4,82,29.96,10.0,NNE,8.1,-,N/A,,Clear,20,2012-10-28 21:15:00
5:35 PM,51.8,46.4,82,29.96,10.0,NNE,8.1,-,N/A,,Clear,20,2012-10-28 21:35:00
5:55 PM,51.8,46.4,82,29.95,10.0,NNE,10.4,-,N/A,,Clear,20,2012-10-28 21:55:00
6:15 PM,51.8,48.2,88,29.94,10.0,NNE,10.4,18.4,N/A,,Clear,20,2012-10-28 22:15:00
6:35 PM,51.8,48.2,88,29.94,10.0,NNE,13.8,20.7,N/A,,Clear,30,2012-10-28 22:35:00
6:55 PM,51.8,48.2,88,29.94,10.0,NNE,12.7,19.6,N/A,,Scattered Clouds,30,2012-10-28 22:55:00
7:15 PM,53.6,48.2,82,29.94,10.0,NE,17.3,26.5,N/A,,Overcast,50,2012-10-28 23:15:00
7:35 PM,53.6,48.2,82,29.93,10.0,NE,16.1,27.6,N/A,,Overcast,50,2012-10-28 23:35:00
7:55 PM,53.6,48.2,82,29.93,10.0,NE,13.8,21.9,N/A,,Overcast,40,2012-10-28 23:55:00
8:15 PM,53.6,48.2,82,29.93,10.0,NE,17.3,20.7,N/A,,Overcast,50,2012-10-29 00:15:00
8:35 PM,53.6,48.2,82,29.94,10.0,ENE,17.3,24.2,N/A,,Overcast,60,2012-10-29 00:35:00
9:15 PM,53.6,48.2,82,29.94,10.0,NE,17.3,24.2,N/A,,Overcast,50,2012-10-29 01:15:00
9:35 PM,53.6,48.2,82,29.93,10.0,ENE,13.8,25.3,N/A,,Overcast,60,2012-10-29 01:35:00
9:55 PM,53.6,48.2,82,29.93,10.0,NE,15.0,20.7,N/A,,Overcast,40,2012-10-29 01:55:00
10:15 PM,53.6,48.2,82,29.93,10.0,NE,12.7,20.7,N/A,,Overcast,40,2012-10-29 02:15:00
10:35 PM,53.6,48.2,82,29.93,10.0,NE,13.8,23.0,N/A,,Overcast,40,2012-10-29 02:35:00
10:55 PM,51.8,50.0,94,29.93,3.0,NE,9.2,18.4,N/A,,Overcast,50,2012-10-29 02:55:00
11:35 PM,51.8,51.8,100,29.91,8.0,NE,13.8,20.7,N/A,,Overcast,50,2012-10-29 03:35:00
11:55 PM,51.8,51.8,100,29.91,5.0,NE,13.8,19.6,N/A,,Overcast,40,2012-10-29 03:55:00